User: anonymous   Login
Location: Caixon
(43.4106°N, 0.0273°E)
Time: 18:31:17
(UTC+00:00)
Language:

ATLAS 2AS CENTAUR R/B - Orbit

View from above orbital plane
View from above orbital plane
View from above satellite
View from above satellite

Ground track
Ground track

The orbit data is extracted from the following two-line orbital elements,

1 28096U 03054B   22014.25104301 0.00000000  00000-0  00000-0 0    05
2 28096  63.6782 152.6094 0197513 207.7172 152.2828 13.40876923    09
Epoch (UTC): 14 January 2022 06:01:30
Eccentricity: 0.0197513
inclination: 63.6782°
perigee height: 958 km
apogee height: 1254 km
right ascension of ascending node: 152.6094°
argument of perigee: 207.7172°
revolutions per day: 13.40876923
mean anomaly at epoch: 152.2828°
orbit number at epoch: 0

The dashed part of the orbit path shows where the satellite is in the earth's shadow,  

DLR